Probability
13 13 16 13 13 3 13 10 10 10 10 6 0 0 3 3 10 6 35 81 87 94 94 94 100 100 97 97 97 100 100 94 97 100 100 94 87 84 81 81 77 77 81
10 10 6 3 6 6 3 3 3 6 6 3 3 0 0 0 0 3 16 52 84 90 94 94 100 97 100 97 94 97 100 97 97 97 100 100 94 94 87 81 74 77 87
6 10 0 3 6 3 3 3 3 0 0 0 0 0 0 0 0 6 3 13 39 84 90 97 100 100 100 100 94 97 97 97 97 97 100 100 97 94 90 87 81 77 74
6 3 0 0 3 0 0 0 0 0 0 0 0 0 0 0 3 3 3 3 6 29 65 97 94 94 100 97 94 94 94 97 97 100 97 94 90 87 87 90 84 77 58
3 0 0 0 0 0 0 0 0 0 0 0 0 0 0 0 0 0 0 3 3 0 10 48 84 94 90 90 90 90 94 94 94 90 90 84 84 84 81 84 77 68 55
0 0 0 0 0 0 0 0 0 0 0 0 0 0 0 0 0 0 0 0 0 0 0 0 19 42 81 87 77 77 84 87 87 90 87 84 84 81 68 71 74 71 55
3 0 0 0 0 0 0 0 0 0 0 0 0 0 0 0 0 0 0 0 0 6 0 0 0 0 10 42 55 65 71 71 74 84 84 81 81 77 61 65 58 52 39
0 0 0 0 0 0 0 0 0 0 0 0 0 0 0 0 0 0 0 0 0 0 0 0 0 0 3 3 6 26 45 58 52 65 68 68 65 68 58 45 52 45 35
0 0 0 0 0 0 0 0 0 0 0 0 0 0 0 0 0 0 0 0 0 0 0 0 0 0 0 0 0 6 32 29 39 45 52 55 52 35 39 48 48 39 29
0 0 0 0 0 0 0 0 0 0 0 0 0 0 0 0 0 0 0 0 0 0 0 0 0 0 0 0 0 0 13 10 16 35 39 35 32 29 19 29 39 42 29
0 0 0 0 0 0 0 0 0 0 0 0 0 0 0 0 0 0 0 0 0 0 0 0 0 0 0 0 0 0 0 0 0 6 10 13 23 23 26 16 19 29 32
0 0 0 0 0 0 0 0 0 0 0 0 0 0 0 0 0 0 0 0 0 0 0 0 0 0 0 0 0 0 0 0 0 0 0 0 0 3 16 13 16 16 19
0 0 0 0 0 0 0 0 0 0 0 0 0 0 0 0 0 0 0 0 0 0 0 0 0 0 0 0 0 0 0 0 0 0 0 0 0 0 0 3 6 6 19
0 0 0 0 0 0 0 0 0 0 0 0 0 0 0 0 0 0 0 0 0 0 0 0 0 0 0 0 0 0 0 0 0 0 0 0 0 0 0 0 3 3 0
0 0 0 0 0 0 0 0 0 0 0 0 0 0 0 0 0 0 0 0 0 0 0 0 0 0 0 0 0 0 0 0 0 0 0 0 0 0 0 0 0 0 0
0 0 0 0 0 0 0 0 0 0 0 0 0 0 0 0 0 0 0 0 0 0 0 0 0 0 0 0 0 0 0 0 0 0 0 0 0 0 0 0 0 0 0
0 0 0 0 0 0 0 0 0 0 0 0 0 0 0 0 0 0 0 0 0 0 0 0 0 0 0 0 0 0 0 0 0 0 0 0 0 0 0 0 0 0 0
0 0 0 0 0 0 0 0 0 0 0 0 0 0 0 0 0 0 0 0 0 0 0 0 0 0 0 0 0 0 0 0 0 0 0 0 0 0 0 0 0 0 0
0 0 0 0 0 0 0 0 0 0 0 0 0 0 0 0 0 0 0 0 0 0 0 0 0 0 0 0 0 0 0 0 0 0 0 0 0 0 0 0 0 0 0
0 0 0 0 0 0 0 0 0 0 0 0 0 0 0 0 0 0 0 0 0 0 0 0 0 0 0 0 0 0 0 0 0 0 0 0 0 0 0 0 0 0 0
0 0 0 0 0 0 0 0 0 0 0 0 0 0 0 0 0 0 0 0 0 0 0 0 0 0 0 0 0 0 0 0 0 0 0 0 0 0 0 0 0 0 0
0 0 0 0 0 0 0 0 0 0 0 0 0 0 0 0 0 0 0 0 0 0 0 0 0 0 0 0 0 0 0 0 0 0 0 0 0 0 0 0 0 0 0
0 0 0 0 0 0 0 0 0 0 0 0 0 0 0 0 0 0 0 0 0 0 0 0 0 0 0 0 0 0 0 0 0 0 0 0 0 0 0 0 0 0 0
0 0 0 0 0 0 0 0 0 0 0 0 0 0 0 0 0 0 0 0 0 0 0 0 0 0 0 0 0 0 0 0 0 0 0 0 0 0 0 0 0 0 0
3 0 0 0 0 0 0 0 0 0 0 0 0 0 0 0 0 0 0 0 0 0 0 0 0 0 0 0 0 0 0 0 0 0 0 0 0 0 0 0 0 0 0
6 3 3 0 0 0 0 0 0 0 0 0 0 0 0 0 0 0 0 0 0 0 0 0 0 0 0 0 0 0 0 0 0 0 0 0 0 0 0 0 0 0 0
Height
5885 5885 5885 5885 5886 5886 5886 5886 5885 5885 5886 5886 5887 5887 5887 5888 5889 5889 5889 5890 5891 5892 5892 5892 5893 5893 5894 5894 5895 5895 5896 5897 5897 5898 5899 5900 5901 5902 5902 5903 5903 5904 5904
5883 5883 5883 5884 5884 5884 5884 5884 5884 5884 5884 5884 5885 5885 5886 5886 5887 5888 5888 5888 5889 5889 5890 5890 5891 5891 5891 5892 5892 5893 5894 5894 5895 5896 5897 5898 5899 5900 5901 5902 5902 5903 5903
5881 5881 5882 5882 5882 5882 5883 5883 5883 5883 5883 5883 5884 5884 5884 5885 5886 5886 5886 5887 5887 5887 5887 5888 5888 5889 5889 5889 5890 5890 5891 5892 5893 5893 5894 5895 5896 5897 5898 5899 5900 5901 5902
5879 5880 5881 5881 5881 5881 5881 5882 5882 5882 5882 5882 5882 5883 5883 5883 5884 5884 5885 5885 5885 5885 5885 5885 5886 5886 5886 5887 5887 5887 5888 5889 5890 5890 5891 5892 5893 5894 5895 5896 5897 5898 5899
5878 5879 5880 5880 5880 5880 5881 5881 5881 5881 5881 5881 5881 5882 5882 5882 5882 5883 5883 5883 5883 5883 5883 5883 5883 5884 5884 5884 5884 5884 5885 5885 5886 5887 5887 5888 5889 5890 5891 5893 5894 5895 5896
5876 5877 5878 5879 5879 5879 5880 5880 5880 5880 5881 5881 5881 5881 5881 5881 5881 5881 5881 5881 5881 5881 5881 5881 5881 5881 5881 5881 5881 5881 5881 5882 5882 5883 5884 5884 5885 5886 5887 5888 5889 5891 5892
5875 5876 5877 5878 5878 5879 5879 5879 5879 5880 5880 5880 5880 5880 5880 5880 5880 5880 5880 5880 5879 5879 5879 5878 5878 5878 5878 5878 5878 5878 5878 5878 5878 5879 5879 5880 5881 5881 5882 5883 5884 5886 5887
5874 5875 5876 5877 5878 5878 5878 5879 5879 5879 5880 5880 5880 5879 5879 5879 5879 5879 5878 5878 5877 5877 5876 5876 5876 5876 5875 5875 5875 5875 5875 5874 5874 5875 5875 5875 5876 5877 5877 5878 5879 5880 5882
5873 5874 5875 5876 5877 5877 5878 5878 5879 5879 5879 5879 5879 5879 5878 5878 5878 5878 5877 5876 5876 5875 5875 5874 5873 5873 5872 5872 5871 5871 5871 5871 5870 5870 5870 5870 5871 5871 5872 5873 5873 5875 5876
5871 5873 5874 5876 5876 5877 5877 5878 5878 5878 5878 5879 5878 5878 5878 5877 5877 5876 5875 5875 5874 5873 5872 5872 5871 5870 5869 5869 5868 5867 5867 5867 5866 5866 5866 5865 5866 5866 5866 5867 5867 5868 5869
5871 5872 5874 5875 5876 5877 5877 5877 5877 5878 5878 5878 5877 5877 5877 5876 5875 5875 5874 5873 5872 5871 5870 5869 5868 5867 5866 5865 5864 5864 5863 5862 5862 5861 5861 5860 5860 5860 5861 5861 5861 5862 5863
5870 5872 5873 5874 5875 5876 5876 5876 5876 5876 5876 5876 5876 5876 5875 5874 5874 5873 5872 5871 5870 5869 5867 5866 5865 5864 5863 5862 5861 5860 5859 5858 5857 5856 5856 5855 5855 5855 5855 5855 5855 5856 5856
5869 5871 5872 5873 5874 5875 5875 5875 5875 5875 5875 5875 5874 5874 5873 5873 5872 5871 5869 5868 5867 5866 5865 5863 5862 5860 5859 5858 5857 5856 5854 5853 5852 5851 5850 5850 5849 5849 5848 5848 5849 5849 5849
5868 5870 5871 5872 5873 5873 5873 5873 5873 5873 5873 5873 5872 5872 5871 5870 5869 5868 5867 5866 5864 5863 5861 5860 5858 5857 5855 5854 5852 5851 5850 5848 5847 5846 5845 5844 5843 5842 5842 5841 5841 5842 5842
5867 5868 5869 5870 5871 5871 5872 5872 5871 5871 5871 5871 5870 5869 5868 5867 5866 5865 5864 5862 5861 5859 5858 5856 5855 5853 5851 5850 5848 5846 5845 5843 5842 5840 5839 5838 5837 5836 5835 5834 5834 5834 5834
5865 5866 5867 5868 5869 5869 5869 5869 5869 5869 5868 5868 5867 5866 5865 5864 5863 5861 5860 5859 5857 5855 5853 5852 5850 5849 5847 5845 5843 5841 5839 5837 5836 5834 5832 5831 5830 5829 5828 5827 5826 5826 5826
5863 5864 5865 5865 5866 5866 5866 5866 5866 5866 5865 5864 5863 5862 5861 5860 5858 5857 5856 5854 5852 5851 5849 5847 5845 5843 5841 5839 5837 5835 5833 5831 5829 5828 5826 5824 5823 5821 5820 5819 5818 5818 5817
5860 5861 5862 5862 5863 5863 5863 5863 5862 5862 5861 5860 5859 5858 5857 5855 5854 5852 5850 5849 5847 5845 5844 5841 5839 5837 5835 5833 5831 5829 5827 5825 5823 5821 5819 5817 5815 5813 5812 5811 5810 5809 5808
5857 5858 5858 5859 5859 5859 5859 5858 5858 5857 5857 5856 5854 5853 5852 5850 5848 5847 5845 5843 5841 5839 5837 5835 5833 5831 5829 5827 5825 5822 5820 5817 5815 5813 5811 5809 5807 5805 5803 5802 5801 5800 5799
5853 5854 5854 5854 5854 5854 5854 5854 5853 5852 5851 5850 5849 5847 5846 5844 5843 5841 5839 5837 5835 5833 5831 5829 5826 5824 5822 5819 5817 5815 5812 5809 5807 5805 5802 5800 5798 5796 5794 5793 5791 5790 5789
5849 5849 5850 5850 5850 5849 5849 5848 5848 5847 5846 5844 5843 5841 5840 5838 5836 5834 5832 5830 5828 5826 5823 5821 5819 5816 5814 5811 5809 5806 5804 5801 5798 5796 5794 5791 5789 5787 5785 5783 5781 5780 5778
5844 5845 5845 5845 5844 5844 5843 5842 5842 5841 5839 5838 5836 5835 5833 5831 5829 5827 5825 5822 5820 5818 5815 5813 5810 5808 5805 5803 5800 5797 5794 5792 5789 5786 5784 5782 5779 5777 5774 5772 5770 5768 5767
5839 5839 5839 5839 5838 5837 5837 5836 5835 5834 5833 5831 5829 5827 5825 5823 5821 5819 5816 5814 5812 5809 5807 5804 5802 5799 5796 5793 5790 5787 5784 5782 5779 5776 5773 5771 5768 5766 5763 5761 5759 5757 5755
5833 5833 5833 5832 5832 5831 5830 5829 5828 5827 5825 5823 5821 5819 5817 5815 5812 5810 5808 5806 5803 5800 5797 5794 5792 5789 5786 5782 5779 5776 5773 5770 5768 5764 5760 5759 5756 5754 5751 5748 5746 5744 5742
5826 5825 5825 5825 5824 5823 5822 5821 5819 5818 5816 5814 5812 5810 5808 5806 5803 5801 5799 5796 5793 5790 5787 5784 5781 5778 5775 5771 5767 5764 5761 5757 5755 5752 5747 5745 5743 5740 5738 5735 5732 5730 5729
5818 5818 5817 5817 5816 5815 5813 5812 5810 5808 5807 5805 5803 5801 5799 5796 5794 5791 5788 5786 5783 5780 5777 5773 5770 5767 5763 5759 5755 5751 5747 5744 5741 5739 5734 5730 5728 5725 5724 5722 5718 5716 5714
Wind_Speed
9 9 9 9 8 8 8 8 9 9 8 8 8 8 8 8 8 8 9 9 9 9 8 9 8 8 8 9 9 9 9 10 10 10 10 10 9 9 9 8 8 7 7
8 7 8 7 7 8 8 7 7 7 7 7 7 7 7 7 7 7 8 8 9 9 9 9 9 9 10 10 10 11 11 12 12 12 12 12 11 11 11 11 10 9 9
7 6 6 6 6 6 6 6 6 6 6 6 7 6 6 6 7 7 8 8 9 9 9 10 10 10 10 10 11 11 12 12 13 14 14 14 14 13 12 12 13 12 12
7 6 6 5 5 5 5 5 6 5 5 5 5 5 5 5 6 7 7 7 8 8 9 10 10 11 11 11 12 12 13 13 14 14 15 16 16 16 16 15 14 14 14
7 6 5 5 4 4 4 4 4 4 4 4 4 4 4 4 5 5 6 7 8 8 9 10 11 11 12 12 12 13 14 14 15 15 16 17 18 19 18 18 18 17 17
7 7 6 5 4 4 4 4 4 4 3 3 3 4 4 4 4 5 5 7 8 8 9 9 10 11 12 13 13 14 15 15 16 16 17 18 19 20 20 21 21 20 20
9 8 7 5 5 4 4 4 4 3 2 2 2 3 4 4 4 5 6 7 8 8 9 9 10 11 11 12 13 14 15 16 16 17 18 19 19 20 22 22 21 22 23
10 9 8 6 5 4 4 4 4 2 1 1 1 2 3 4 4 5 6 6 7 8 9 9 10 11 12 13 13 14 15 16 17 18 19 19 20 20 22 23 24 23 24
10 9 8 7 6 5 5 4 4 2 1 0 1 2 3 4 5 5 6 6 6 7 8 9 10 11 12 13 13 13 15 16 17 18 19 20 21 22 22 23 24 25 26
11 10 8 7 7 6 5 4 3 2 1 0 1 2 3 4 5 6 6 7 7 7 8 9 10 11 12 13 13 14 15 16 17 18 19 20 21 22 23 24 24 25 26
12 11 9 8 7 6 4 4 3 2 1 1 2 2 3 4 5 6 6 7 8 8 9 9 10 11 12 12 13 14 15 16 18 19 19 20 21 23 23 24 25 26 26
12 11 9 8 7 6 4 3 2 1 1 1 2 3 4 5 6 6 7 7 8 9 10 10 11 12 12 13 14 14 15 16 17 18 20 21 22 23 24 24 25 26 27
12 11 9 8 7 5 4 3 1 1 1 2 3 4 5 6 7 7 8 8 9 10 10 11 12 13 13 14 15 16 17 18 18 19 20 21 23 24 25 26 26 27 28
12 11 9 8 6 5 4 3 2 2 3 4 5 6 6 7 8 8 9 10 11 11 12 12 13 14 15 15 16 17 17 18 19 20 20 21 22 24 25 26 27 28 29
11 10 9 7 6 5 4 4 4 5 6 7 7 8 8 9 9 10 11 11 12 13 13 14 15 15 16 17 17 18 19 19 20 20 21 22 23 24 25 26 27 29 30
11 9 8 7 7 6 6 6 6 7 8 9 9 10 11 11 12 13 13 13 14 15 16 16 17 17 17 18 19 19 20 20 21 21 22 23 24 25 26 27 27 29 30
11 10 9 8 8 8 8 8 9 10 10 11 11 12 13 13 14 15 15 16 16 17 17 18 18 19 19 19 20 21 21 22 22 23 23 24 25 26 27 27 28 29 31
11 11 10 10 10 10 10 10 11 12 12 13 13 14 15 16 17 17 18 18 18 19 19 20 20 21 21 21 22 23 23 24 24 25 25 26 26 27 28 28 29 30 31
12 12 12 12 12 12 12 13 13 14 14 15 16 16 17 18 19 19 20 20 21 21 22 22 23 23 23 24 25 25 26 26 27 27 27 28 28 29 29 30 31 31 32
13 13 13 13 14 14 14 14 15 16 17 17 18 19 20 20 21 21 22 22 23 24 24 24 25 25 26 27 27 27 28 28 29 29 29 30 30 30 31 32 32 33 34
14 14 15 15 16 16 17 17 18 19 19 20 21 21 22 22 23 24 24 25 25 26 26 26 27 28 29 29 30 30 30 30 31 32 32 32 33 33 33 33 34 34 35
16 16 17 17 18 19 19 20 21 22 22 23 23 24 25 25 26 26 26 27 27 28 28 29 30 30 31 32 32 33 33 33 33 35 35 35 36 35 35 35 35 36 37
18 19 20 21 21 21 22 23 23 24 24 25 26 26 27 28 28 29 29 29 30 30 31 31 31 32 33 34 35 35 35 35 36 37 38 37 38 38 38 38 38 38 39
21 21 22 23 23 24 25 26 26 26 27 28 28 29 29 29 30 31 31 31 31 33 34 34 34 35 36 37 38 38 38 39 38 40 41 39 39 40 40 40 41 40 41
23 23 24 25 25 26 27 28 29 29 29 30 31 31 32 32 32 33 33 33 34 35 36 37 37 38 38 39 41 41 42 43 42 42 44 43 42 42 42 43 43 43 42
25 26 26 27 27 28 29 31 31 31 31 32 33 34 34 34 35 35 36 36 37 37 38 39 40 41 42 42 44 45 45 46 45 44 46 47 46 46 45 44 45 45 44
Wind_Direction
268 260 254 257 255 254 259 259 256 256 258 261 265 268 263 258 256 253 262 255 253 258 263 262 260 258 257 254 253 251 243 238 238 236 233 229 230 232 233 233 233 234 235
254 249 241 241 247 251 249 251 253 249 252 256 260 266 265 253 261 261 259 253 260 262 262 263 261 258 260 257 256 255 252 245 242 239 236 234 234 236 238 240 241 240 240
239 235 225 231 240 245 241 241 245 244 246 252 258 265 265 260 261 263 259 261 266 269 267 265 265 263 264 261 259 259 255 250 248 243 241 239 237 239 241 243 244 244 244
222 214 210 220 228 233 232 235 236 239 244 248 250 259 264 267 266 266 263 265 272 276 271 268 265 264 267 267 263 260 256 256 254 248 245 243 242 242 244 244 246 245 246
213 206 204 208 207 214 222 228 225 225 235 242 253 263 271 281 278 269 267 268 277 278 279 276 269 267 270 271 267 263 260 257 256 254 252 248 247 246 246 246 247 247 247
200 192 190 186 180 180 187 202 214 215 223 243 264 275 280 287 284 282 279 279 280 281 282 282 279 274 271 272 268 265 263 261 260 259 257 254 251 251 250 249 248 247 246
186 181 177 169 163 162 167 173 184 185 209 253 274 286 288 291 287 284 285 284 288 287 283 281 282 280 275 273 271 268 266 266 263 261 261 259 257 254 252 251 251 249 246
182 180 174 164 159 161 166 168 163 171 189 243 292 309 307 300 294 290 289 292 295 295 291 288 287 283 280 276 274 272 268 267 265 264 264 262 260 260 257 254 252 252 250
180 176 170 163 161 161 161 156 149 153 155 193 311 314 315 313 309 304 300 297 297 296 294 291 289 287 282 280 276 276 272 270 268 268 266 263 262 260 259 257 254 253 252
177 173 169 164 160 153 149 150 146 145 144 271 311 320 325 325 322 317 314 309 303 301 298 294 290 288 285 281 279 277 275 273 271 269 268 266 263 262 261 260 257 255 254
176 171 169 166 163 159 153 147 140 129 92 360 348 340 333 326 324 323 321 317 313 310 307 301 297 293 289 286 284 281 279 276 272 271 270 267 265 264 263 261 259 257 256
174 173 175 174 173 174 174 168 151 110 38 2 343 335 333 328 325 324 324 321 317 314 312 308 304 300 296 293 289 287 285 282 278 276 273 270 268 266 265 263 261 259 257
176 180 184 184 185 185 187 189 198 282 313 320 319 319 321 323 322 321 321 319 315 312 310 309 306 301 298 296 294 292 289 287 283 280 278 274 271 269 267 265 262 260 258
184 188 192 195 195 197 207 221 246 275 297 308 311 312 313 316 318 317 316 315 313 311 310 308 305 302 299 297 296 294 291 289 285 282 280 278 275 273 271 268 264 261 259
191 195 202 205 209 219 236 250 267 285 296 301 305 306 307 307 309 309 308 310 311 310 309 307 305 302 299 298 297 295 293 290 288 284 281 279 277 276 274 271 268 264 262
200 206 214 219 227 239 253 265 276 288 293 296 299 301 302 302 303 304 304 304 305 306 307 306 305 302 300 298 296 295 294 292 290 287 284 281 278 277 276 273 270 267 265
213 219 226 234 241 249 261 269 278 286 290 292 295 297 299 299 299 300 301 301 301 302 302 302 301 301 299 298 296 295 294 293 291 289 287 283 281 278 276 274 272 269 267
223 230 237 242 248 255 264 272 278 283 288 290 293 295 298 299 298 298 299 299 300 300 299 299 299 299 298 298 297 295 294 293 291 290 288 285 282 280 277 276 274 272 269
232 238 243 249 254 260 268 274 279 283 286 288 291 294 296 297 297 298 298 298 298 298 298 297 297 296 296 296 296 295 294 292 291 290 289 287 284 281 279 277 275 274 272
238 244 249 254 259 263 269 274 279 283 285 288 290 292 294 295 296 297 297 296 297 297 296 295 295 294 294 294 294 294 293 292 291 290 289 287 285 283 281 279 278 275 274
244 248 253 259 263 267 271 275 279 282 286 288 289 290 291 292 293 294 294 295 295 294 294 293 292 293 293 294 293 293 292 291 291 290 289 287 285 283 282 281 280 278 276
250 254 259 262 266 270 273 276 280 283 286 287 289 289 290 290 290 291 292 292 293 293 292 291 291 291 292 292 292 292 292 291 290 289 289 287 285 283 281 280 279 278 276
256 261 265 266 268 271 274 277 280 282 284 286 288 288 289 290 290 291 290 290 291 291 291 291 291 291 291 291 291 291 291 290 289 288 287 286 285 284 282 280 278 277 276
260 263 267 268 270 273 276 279 280 281 282 284 286 287 287 289 290 290 289 289 290 290 290 290 291 291 291 291 292 291 290 290 289 288 287 286 284 283 282 280 279 277 276
261 265 267 269 272 275 278 279 280 281 282 282 285 286 288 289 289 289 289 289 289 288 288 289 290 290 290 291 291 291 290 289 289 288 287 286 284 282 281 280 279 277 276
264 267 269 270 273 276 278 280 280 281 284 284 285 287 288 288 288 288 289 289 288 288 288 289 290 290 290 290 290 290 289 288 288 287 286 285 284 282 280 279 278 277 276